Voltar ao catálogo

COSMOS 2251 DEB

AtivoLEO
NORAD 34563·DEBRIS·🇷🇺 Russia

Lançado Jun 16, 1993 de Plesetsk Cosmodrome

Loading…

Próximas Passagens (próximas 24 horas)

TLE

AtualizadoSource: Space-Track

Época: Sep 14, 2026, 03:10 UTC

1 34563U 93036UZ  26257.13194508  .00000968  00000-0  27158-3 0  9994
2 34563  74.0377  49.1547 0012734  76.6094  40.4506 14.47301615921801

Acompanhe COSMOS 2251 DEB em tempo real com AllMySat

Download on the App Store